Regional Weather Roundup
Issued by NWS

Home | Current Version | Previous Version | Text Only | Print | Product List | Glossary On
Versions: 1 2 3 4 5 6 7 8 9 10 11 12 13 14 15 16 17 18 19 20 21 22 23 24 25 26 27 28 29 30 31 32 33 34 35 36 37 38 39 40 41 42 43 44 45 46 47 48 49 50
000
ASUS43 KOAX 010210
RWRNE

WEATHER ROUNDUP FOR NEBRASKA
NATIONAL WEATHER SERVICE OMAHA NE
900 PM CDT THU JUN 30 2016

NOTES: SATELLITE DATA IS BEING USED TO AUGMENT CLOUD COVER ABOVE
       12000 FEET.
       "FAIR" INDICATES FEW OR NO CLOUDS BELOW 12,000 FEET WITH NO
       SIGNIFICANT WEATHER AND/OR OBSTRUCTIONS TO VISIBILITY.

  * THESE STATIONS DO NOT REPORT WEATHER SUCH AS RAIN...SNOW OR FOG.

NEZ001>004-019>022-054>056-010300-
NEBRASKA PANHANDLE

CITY           SKY/WX    TMP DP  RH WIND       PRES   REMARKS
SCOTTSBLUFF    CLOUDY    73  47  39 E12       30.18R
ALLIANCE       CLOUDY    68  53  58 E7        30.19R
CHADRON        PTCLDY    72  57  59 S8        30.15R
KIMBALL        LGT RAIN  63  62  99 E7        30.24S
SIDNEY         LGT RAIN  68  58  70 SE6       30.21R
$$

NEZ057>060-069>072-079>082-010300-
SOUTHWEST NEBRASKA

CITY           SKY/WX    TMP DP  RH WIND       PRES   REMARKS
NORTH PLATTE   CLEAR     70  58  65 NE6       30.13R
IMPERIAL       CLOUDY    73  59  61 NE7       30.13R
LEXINGTON      PTCLDY    71  61  71 NE6       30.11R
MCCOOK         PTCLDY    75  59  57 NE9       30.08S
OGALLALA       CLOUDY    75  54  47 NE10      30.15S
$$

NEZ005>010-023>029-035>040-094-010300-
NORTH CENTRAL NEBRASKA

CITY           SKY/WX    TMP DP  RH WIND       PRES   REMARKS
VALENTINE      CLEAR     73  54  51 NE8       30.14R
AINSWORTH      CLEAR     71  58  63 NE6       30.14R
BROKEN BOW     CLEAR     72  58  61 NE7       30.11R
O`NEILL        CLEAR     71  55  55 N7        30.10S
ORD            CLEAR     73  58  59 N8        30.08R
THEDFORD       CLEAR     72  59  63 NE3       30.15R
$$

NEZ041-046>049-061>064-073>077-083>087-010300-
SOUTH CENTRAL NEBRASKA

CITY           SKY/WX    TMP DP  RH WIND       PRES   REMARKS
GRAND ISLAND   CLEAR     75  58  55 NE7       30.06R
AURORA         CLEAR     74  60  61 N7        30.05S
HASTINGS       CLEAR     73  61  65 NE6       30.06R
HEBRON         CLEAR     78  60  53 N8        30.02R
HOLDREGE       CLEAR     71  59  66 N7        30.09R
KEARNEY *      CLOUDY    72  59  64 N8        30.09R
YORK           CLEAR     75  61  60 NE7       30.05R
$$

NEZ011>018-030>034-042>045-010300-
NORTHEAST NEBRASKA

CITY           SKY/WX    TMP DP  RH WIND       PRES   REMARKS
NORFOLK        CLEAR     75  55  49 N13       30.05R
ALBION         CLEAR     74  57  56 N5        30.07R
BLAIR          CLEAR     76  62  61 N9        30.02R
FREMONT        CLEAR     77  59  54 N6        30.03R
TEKAMAH        CLEAR     76  58  53 N9        30.02R
WAYNE          CLEAR     71  59  67 N6        30.06R
$$

NEZ050>053-065>068-078-088>093-010300-
SOUTHEAST NEBRASKA

CITY           SKY/WX    TMP DP  RH WIND       PRES   REMARKS
LINCOLN        CLEAR     79  62  56 N10       30.02R
OMAHA EPPLEY   PTCLDY    78  64  61 N8        30.00R
BEATRICE       CLEAR     78  61  54 NE7       30.01R
FALLS CITY     CLEAR     77  64  64 N6        29.97R
NEBRASKA CITY  CLEAR     75  61  61 N8        30.00R
PLATTSMOUTH    CLEAR     77  65  67 N3        30.01R
$$

NEZ044-045-051>053-067-010300-
OMAHA AREA

CITY           SKY/WX    TMP DP  RH WIND       PRES   REMARKS
OMAHA EPPLEY   PTCLDY    78  64  61 N8        30.00R
BLAIR          CLEAR     76  62  61 N9        30.02R
FREMONT        CLEAR     77  59  54 N6        30.03R
MILLARD        PTCLDY    80  65  59 N6        30.01R
OFFUTT AFB     CLEAR     77  64  63 N6        30.00R
PLATTSMOUTH    CLEAR     77  65  67 N3        30.01R
WAHOO          FAIR      76  62  62 N9        30.02R
$$




USA.gov is the U.S. government's official web portal to all federal, state and local government web resources and services.